Date,TemperatureHighF,TemperatureAvgF,TemperatureLowF,DewpointHighF,DewpointAvgF,DewpointLowF,HumidityHigh,HumidityAvg,HumidityLow,PressureMaxIn,PressureMinIn,WindSpeedMaxMPH,WindSpeedAvgMPH,GustSpeedMaxMPH,PrecipitationSumIn
2013-3-7,43.6,31.5,24.4,30.4,24.2,20.5,87,75,55,30.29,30.13,7,3,14,0.01
2013-3-8,52.0,34.4,21.3,25.0,22.4,18.6,92,65,29,30.35,30.24,6,1,13,0.00
2013-3-9,59.0,44.1,27.6,31.7,23.2,17.3,78,47,27,30.34,30.19,3,0,11,0.00
2013-3-10,59.5,48.9,38.3,34.4,30.4,27.2,69,50,34,30.25,30.12,3,0,11,0.00
2013-3-11,53.2,49.2,43.6,48.8,45.1,33.0,94,86,62,30.11,29.78,4,1,22,0.53
2013-3-12,50.8,45.2,39.1,49.4,36.3,26.9,95,73,44,30.00,29.69,8,4,18,0.21
2013-3-13,44.3,34.8,26.7,29.2,20.6,12.5,69,57,38,30.15,29.98,17,4,24,0.00
2013-3-14,44.8,32.2,22.1,15.7,12.2,6.4,66,46,23,30.30,30.14,19,3,19,0.00
2013-3-15,65.8,47.8,32.7,39.3,28.4,10.9,72,49,23,30.20,29.85,18,2,18,0.00
2013-3-16,74.0,60.9,43.8,44.6,40.7,37.2,80,50,28,29.88,29.66,21,5,21,0.00
2013-3-17,70.3,56.2,41.9,48.7,43.3,38.2,91,65,35,29.97,29.78,14,1,14,0.00
2013-3-18,43.5,38.0,33.2,42.4,36.7,31.9,96,95,90,30.06,29.85,13,2,13,0.26
2013-3-19,54.2,43.5,36.6,43.0,26.0,7.9,96,56,27,30.07,29.85,20,4,22,0.00
2013-3-20,51.6,39.9,29.8,27.9,10.4,3.8,84,32,18,30.08,29.81,22,2,22,0.00
2013-3-21,33.4,27.1,19.5,22.9,10.6,5.3,75,50,35,29.97,29.74,25,5,25,0.00
2013-3-22,49.1,34.7,21.0,23.1,13.1,3.7,66,43,18,30.07,29.95,11,1,11,0.00
2013-3-23,58.6,42.8,33.1,43.4,33.2,19.7,92,70,45,30.01,29.82,10,0,10,0.04
2013-3-24,42.6,38.1,34.4,38.2,36.0,32.7,95,92,78,29.86,29.52,14,3,25,0.51
2013-3-25,37.0,31.9,27.3,33.1,22.8,17.2,96,70,48,29.88,29.52,31,7,31,0.02
2013-3-26,34.0,29.2,25.7,25.7,21.8,19.5,81,74,65,30.19,29.86,24,4,24,0.00
2013-3-27,42.9,33.0,26.7,23.5,21.1,17.9,83,63,39,30.27,30.17,18,2,18,0.00
2013-3-28,49.4,36.3,26.3,22.2,19.7,15.9,74,53,28,30.31,30.20,18,2,18,0.00
2013-3-29,53.5,40.4,28.5,36.2,25.4,14.0,89,59,21,30.33,30.18,13,1,13,0.02
2013-3-30,59.0,47.0,38.8,44.9,38.8,36.2,95,76,46,30.20,30.00,11,0,11,0.13
2013-3-31,62.9,51.7,45.5,51.6,46.2,38.3,96,83,51,30.01,29.78,17,2,17,0.18